Home   Weather   Belém   Past weeks

Flag for Brazil Past Weather in Belém, Pará, Brazil — Yesterday and Last 2 Weeks

Now
82 °F

Partly sunny.


Feels Like: 89 °F
Forecast: 75 / 84 °F
Wind: 5 mph from West

Location: Belem Aeroporto

Current Time: Feb 26, 2017 at 1:45:40 pm

Latest Report: Feb 26, 2017 at 1:00 pm


Visibility: N/A

Pressure: 29.89 "Hg

Humidity: 79%

Dew Point: 75 °F

Location of BelémLocation

Past Weather in Belém — Graph

°F

Belém Temperature Yesterday

Maximum temperature yesterday: 88 °F (at 12:00 pm)
Minimum temperature yesterday: 75 °F (at 2:00 am)
Average temperature yesterday: 80 °F

High & Low Weather Summary for the Past Weeks

 TemperatureHumidityPressure
High90 °F (Feb 15, 4:00 pm)100% (Feb 12, 12:00 am)29.98 "Hg (Feb 12, 12:00 am)
Low73 °F (Feb 11, 10:00 pm)55% (Feb 15, 4:00 pm)29.62 "Hg (Feb 15, 12:00 pm)
Average78 °F86%29.86 "Hg
* Reported Feb 11 12:00 pm — Feb 26 12:00 pm, Belém, Weather by CustomWeather, © 2017

Note: Actual official high and low records may vary slightly from our data, if they occured in-between our weather recording intervals... More about our weather records

Advertising

Belém Weather History for the Previous 24 Hours

Scroll right to see more
 ConditionsComfort  
Time TempWeatherWind HumidityBarometerVisibility
12:00 pm
Sun, Feb 26
86 °FPartly sunny.7 mph66%29.89 "HgN/A
11:00 am82 °FBroken clouds.7 mph74%29.92 "HgN/A
10:00 am81 °FRain. Partly sunny.8 mph84%29.92 "HgN/A
9:00 am81 °FBroken clouds.3 mph79%29.89 "HgN/A
8:00 am77 °FBroken clouds.3 mph89%29.86 "HgN/A
7:00 am75 °FPassing clouds.No wind94%29.83 "HgN/A
6:00 am75 °FPassing clouds.2 mph94%29.80 "HgN/A
5:00 am75 °FPassing clouds.5 mph94%29.83 "HgN/A
4:00 am77 °FPassing clouds.3 mph94%29.80 "HgN/A
3:00 am77 °FPassing clouds.3 mph89%29.83 "HgN/A
2:00 am77 °FPassing clouds.3 mph94%29.83 "HgN/A
1:00 am77 °FClear.3 mph94%29.86 "Hg10 mi
12:00 am77 °FPassing clouds.2 mph94%29.86 "HgN/A
11:00 pm
Sat, Feb 25
79 °FClear.5 mph89%29.89 "Hg10 mi
10:00 pm79 °FPassing clouds.9 mph89%29.86 "HgN/A
9:00 pm79 °FPassing clouds.7 mph89%29.83 "HgN/A
8:00 pm81 °FPassing clouds.8 mph84%29.83 "HgN/A
7:00 pm81 °FPassing clouds.9 mph84%29.77 "HgN/A
6:00 pm81 °FPartly sunny.9 mph84%29.77 "HgN/A
5:00 pm82 °FPartly sunny.9 mph74%29.77 "HgN/A
4:00 pm81 °FScattered clouds.9 mph89%29.77 "HgN/A
2:00 pm82 °FLight rain. Broken clouds.10 mph79%N/AN/A
1:00 pm82 °FLight rain. Broken clouds.13 mph74%29.83 "HgN/A
Weather by CustomWeather, © 2017

See weather overviewHow to use our weather pages

LIVE ANNULAR SOLAR ECLIPSE – Watch the eclipse as it happens